Mosinee, WI

5:07 AM CDT on April 26, 2017 (GMT -0500)
Central Wisconsin

Weather History for KCWA - March, 2014

Change the Weather History Date:

Thursday, March 6, 2014

  Actual Average Record
Temperature  
Mean Temperature 12 °F -  
Max Temperature 26 °F 29 °F 55 °F (2017)
Min Temperature -2 °F 12 °F -5 °F (2015)
Degree Days  
Heating Degree Days 53    
Moisture  
Dew Point 6 °F    
Average Humidity 78    
Maximum Humidity 100    
Minimum Humidity 54    
Precipitation  
Precipitation 0.00 in - - ()
Sea Level Pressure  
Sea Level Pressure 30.18 in    
Wind  
Wind Speed 7 mph (SE)    
Max Wind Speed 18 mph    
Max Gust Speed 18 mph    
Visibility 10 miles    
Events      
Averages and records for this station are not official NWS values.
T = Trace of Precipitation, MM = Missing Value Source: NWS Daily Summary

Daily Weather History Graph

Daily Weather History Graph

Search for Another Location

Airport or City:

Trip Planner

Search our weather history database for the weather conditions in past years. The results will help you decide how hot, cold, wet, or windy it might be!

Date:

Astronomy

Mar. 06, 2014 Rise Set
Actual Time 6:27 AM CST 5:53 PM CST
Civil Twilight 5:58 AM CST 6:22 PM CST
Nautical Twilight 5:24 AM CST 6:56 PM CST
Astronomical Twilight 4:50 AM CST 7:30 PM CST
Moon 9:21 AM CST (3/6) No Moon Set
Length of Visible Light 12h 24m
Length of Day
11h 25m
Waxing Crescent, 32% of the Moon is Illuminated
Mar 6
Waxing Crescent
Mar 8
First Quarter
Mar 16
Full
Mar 23
Last Quarter
Mar 30
New

Hourly Weather History & Observations

Time (CST) Temp. Windchill Dew Point Humidity Pressure Visibility Wind Dir Wind Speed Gust Speed Precip Events Conditions
12:15 AM 1.4 °F -8.3 °F -5.8 °F 72% 30.41 in 10.0 mi ESE 4.6 mph - N/A   Clear
12:35 AM 3.2 °F -6.2 °F -4.0 °F 72% 30.41 in 10.0 mi ESE 4.6 mph - N/A   Clear
12:55 AM 1.4 °F -8.3 °F -4.0 °F 78% 30.40 in 10.0 mi East 4.6 mph - N/A   Clear
1:15 AM 1.4 °F -6.2 °F -4.0 °F 78% 30.41 in 10.0 mi East 3.5 mph - N/A   Clear
1:35 AM 1.4 °F -8.3 °F -4.0 °F 78% 30.40 in 10.0 mi East 4.6 mph - N/A   Clear
1:55 AM 1.4 °F -8.3 °F -4.0 °F 78% 30.39 in 10.0 mi East 4.6 mph - N/A   Clear
2:15 AM 1.4 °F -9.9 °F -4.0 °F 78% 30.38 in 10.0 mi ESE 5.8 mph - N/A   Clear
2:35 AM -0.4 °F -10.4 °F -4.0 °F 85% 30.38 in 10.0 mi ESE 4.6 mph - N/A   Clear
2:55 AM -0.4 °F -10.4 °F -4.0 °F 85% 30.38 in 10.0 mi East 4.6 mph - N/A   Clear
3:15 AM -2.2 °F -10.4 °F -4.0 °F 92% 30.37 in 10.0 mi East 3.5 mph - N/A   Clear
3:40 AM -0.4 °F -10.4 °F -2.2 °F 92% 30.37 in 10.0 mi East 4.6 mph - N/A   Clear
3:55 AM -0.4 °F -12.0 °F -4.0 °F 85% 30.36 in 10.0 mi East 5.8 mph - N/A   Clear
4:15 AM 1.4 °F -8.3 °F -2.2 °F 85% 30.36 in 10.0 mi ESE 4.6 mph - N/A   Clear
4:35 AM 1.4 °F -8.3 °F -2.2 °F 85% 30.35 in 10.0 mi ESE 4.6 mph - N/A   Clear
5:45 AM -0.4 °F -10.4 °F -2.2 °F 92% 30.33 in 10.0 mi ESE 4.6 mph - N/A   Clear
6:45 AM 1.4 °F -8.3 °F -0.4 °F 92% 30.31 in 10.0 mi ESE 4.6 mph - N/A   Clear
7:45 AM 3.2 °F -4.2 °F 1.4 °F 92% 30.31 in 10.0 mi SE 3.5 mph - N/A   Scattered Clouds
8:50 AM 10.4 °F - 10.4 °F 100% 30.29 in 10.0 mi Calm Calm - N/A   Scattered Clouds
9:45 AM 15.8 °F 6.1 °F 14.0 °F 93% 30.27 in 10.0 mi SSE 6.9 mph - N/A   Clear
10:45 AM 19.4 °F 5.5 °F 12.2 °F 74% 30.23 in 10.0 mi SSE 15.0 mph - N/A   Clear
11:45 AM 26.6 °F 15.7 °F 14.0 °F 59% 30.20 in 10.0 mi South 12.7 mph - N/A   Clear
12:45 PM 23.0 °F 13.1 °F 14.0 °F 68% 30.17 in 10.0 mi SSE 9.2 mph - N/A   Clear
1:45 PM 24.8 °F 14.0 °F 14.0 °F 64% 30.14 in 10.0 mi South 11.5 mph 18.4 mph N/A   Clear
2:45 PM 24.8 °F 11.9 °F 12.2 °F 59% 30.11 in 10.0 mi South 16.1 mph - N/A   Clear
3:45 PM 24.8 °F 11.1 °F 12.2 °F 59% 30.07 in 10.0 mi South 18.4 mph - N/A   Clear
4:45 PM 24.8 °F 11.5 °F 10.4 °F 54% 30.06 in 10.0 mi South 17.3 mph - N/A   Clear
5:45 PM 23.0 °F 11.7 °F 10.4 °F 59% 30.03 in 10.0 mi SSE 11.5 mph - N/A   Clear
6:45 PM 21.2 °F 11.7 °F 8.6 °F 58% 30.01 in 10.0 mi SSE 8.1 mph - N/A   Clear
7:45 PM 19.4 °F 8.6 °F 10.4 °F 68% 29.99 in 10.0 mi SSE 9.2 mph - N/A   Clear
8:45 PM 17.6 °F 7.3 °F 10.4 °F 73% 29.97 in 10.0 mi SSE 8.1 mph - N/A   Clear
9:15 PM 19.4 °F 8.6 °F 12.2 °F 74% 29.96 in 10.0 mi SSE 9.2 mph - N/A   Clear
9:35 PM 19.4 °F 7.2 °F 12.2 °F 74% 29.96 in 10.0 mi South 11.5 mph - N/A   Clear
9:45 PM 17.6 °F 4.3 °F 12.2 °F 79% 29.96 in 10.0 mi SSE 12.7 mph - N/A   Clear
9:55 PM 19.4 °F 7.2 °F 12.2 °F 74% 29.96 in 10.0 mi SSE 11.5 mph - N/A   Clear
10:15 PM 19.4 °F 6.0 °F 14.0 °F 80% 29.95 in 10.0 mi SSE 13.8 mph - N/A   Clear
10:35 PM 19.4 °F 6.6 °F 14.0 °F 80% 29.93 in 10.0 mi SSE 12.7 mph - N/A   Clear
10:55 PM 19.4 °F 6.6 °F 14.0 °F 80% 29.93 in 10.0 mi SSE 12.7 mph - N/A   Clear
11:15 PM 19.4 °F 6.6 °F 14.0 °F 80% 29.92 in 10.0 mi South 12.7 mph - N/A   Clear
11:35 PM 17.6 °F 4.3 °F 14.0 °F 86% 29.91 in 10.0 mi South 12.7 mph - N/A   Clear
11:55 PM 17.6 °F 5.7 °F 14.0 °F 86% 29.92 in 10.0 mi South 10.4 mph - N/A   Clear